• In France
  • List of Countries
  • For 7 days
  • Water Temperature
  • Satellite Maps
  • Weather Map
  • Weather Widgets
  • user-avatar
    Login

    Hourly Weather Santa Rita

    Today, 19 February, Monday

    Time Temperature Precipitation Wind Pressure Humidity
    00:00 +28°C° 0 mm 3 mps 748 mmHg 52%
    01:00 +28°C° 0 mm 3 mps 747 mmHg 53%
    02:00 +27°C° 0 mm 3 mps 747 mmHg 55%
    03:00 +27°C° 0 mm 4 mps 747 mmHg 57%
    04:00 +27°C° 0 mm 4 mps 747 mmHg 58%
    05:00 +27°C° 0 mm 4 mps 748 mmHg 60%
    06:00 +27°C° 0 mm 4 mps 748 mmHg 61%
    07:00 +27°C° 0 mm 4 mps 749 mmHg 63%
    08:00 +29°C° 0 mm 4 mps 749 mmHg 57%
    09:00 +32°C° 0 mm 5 mps 749 mmHg 50%
    10:00 +34°C° 0 mm 5 mps 749 mmHg 44%
    11:00 +35°C° 0 mm 4 mps 748 mmHg 41%
    12:00 +36°C° 0 mm 4 mps 748 mmHg 37%
    13:00 +38°C° 0 mm 4 mps 747 mmHg 34%
    14:00 +37°C° 0 mm 4 mps 746 mmHg 34%
    15:00 +37°C° 0 mm 4 mps 746 mmHg 33%
    16:00 +37°C° 0 mm 5 mps 745 mmHg 33%
    17:00 +35°C° 0 mm 4 mps 745 mmHg 36%
    18:00 +34°C° 0 mm 4 mps 745 mmHg 39%
    19:00 +31°C° 0 mm 3 mps 746 mmHg 42%
    20:00 +30°C° 0 mm 3 mps 746 mmHg 42%
    21:00 +30°C° 0 mm 3 mps 747 mmHg 41%
    22:00 +30°C° 0 mm 4 mps 747 mmHg 41%
    23:00 +29°C° 0 mm 4 mps 747 mmHg 43%

    Tomorrow, 20 February, Tuesday

    Time Temperature Precipitation Wind Pressure Humidity
    00:00 +29°C° 0 mm 4 mps 747 mmHg 44%
    01:00 +28°C° 0 mm 5 mps 747 mmHg 46%
    02:00 +28°C° 0 mm 5 mps 747 mmHg 48%
    03:00 +28°C° 0 mm 5 mps 747 mmHg 50%
    04:00 +27°C° 0 mm 6 mps 747 mmHg 52%
    05:00 +27°C° 0 mm 6 mps 748 mmHg 55%
    06:00 +27°C° 0 mm 6 mps 748 mmHg 58%
    07:00 +27°C° 0 mm 6 mps 749 mmHg 61%
    08:00 +29°C° 0 mm 6 mps 749 mmHg 55%
    09:00 +32°C° 0 mm 6 mps 749 mmHg 49%
    10:00 +34°C° 0 mm 6 mps 750 mmHg 43%
    11:00 +35°C° 0 mm 5 mps 749 mmHg 39%
    12:00 +36°C° 0 mm 5 mps 748 mmHg 35%
    13:00 +37°C° 0 mm 5 mps 747 mmHg 31%
    14:00 +37°C° 0 mm 5 mps 747 mmHg 31%
    15:00 +37°C° 0 mm 5 mps 746 mmHg 30%
    16:00 +37°C° 0 mm 4 mps 745 mmHg 29%
    17:00 +35°C° 0 mm 4 mps 746 mmHg 33%
    18:00 +34°C° 0 mm 3 mps 746 mmHg 36%
    19:00 +31°C° 0 mm 3 mps 746 mmHg 40%
    20:00 +30°C° 0 mm 3 mps 747 mmHg 40%
    21:00 +30°C° 0 mm 4 mps 748 mmHg 41%
    22:00 +30°C° 0 mm 4 mps 748 mmHg 41%
    23:00 +29°C° 0 mm 4 mps 748 mmHg 44%

    Day after tomorrow, 21 February, Wednesday

    Time Temperature Precipitation Wind Pressure Humidity
    00:00 +29°C° 0 mm 5 mps 748 mmHg 47%
    01:00 +29°C° 0 mm 5 mps 747 mmHg 49%
    02:00 +28°C° 0 mm 5 mps 748 mmHg 51%
    03:00 +28°C° 0 mm 5 mps 748 mmHg 53%
    04:00 +27°C° 0 mm 5 mps 748 mmHg 55%
    05:00 +27°C° 0 mm 5 mps 748 mmHg 57%
    06:00 +27°C° 0 mm 5 mps 749 mmHg 59%
    07:00 +27°C° 0 mm 5 mps 749 mmHg 61%
    08:00 +29°C° 0 mm 5 mps 750 mmHg 55%
    09:00 +32°C° 0 mm 5 mps 750 mmHg 50%
    10:00 +34°C° 0 mm 6 mps 750 mmHg 44%
    11:00 +35°C° 0 mm 5 mps 750 mmHg 40%
    12:00 +36°C° 0 mm 5 mps 749 mmHg 36%
    13:00 +37°C° 0 mm 5 mps 748 mmHg 32%
    14:00 +37°C° 0 mm 4 mps 747 mmHg 32%
    15:00 +37°C° 0 mm 4 mps 747 mmHg 31%
    16:00 +37°C° 0 mm 4 mps 746 mmHg 31%
    17:00 +35°C° 0 mm 4 mps 746 mmHg 33%
    18:00 +34°C° 0 mm 3 mps 747 mmHg 36%
    19:00 +31°C° 0 mm 2 mps 747 mmHg 39%
    20:00 +30°C° 0 mm 3 mps 748 mmHg 39%
    21:00 +30°C° 0 mm 3 mps 748 mmHg 39%
    22:00 +29°C° 0 mm 3 mps 748 mmHg 39%
    23:00 +29°C° 0 mm 3 mps 748 mmHg 41%

    22 February, Thursday

    Time Temperature Precipitation Wind Pressure Humidity
    00:00 +29°C° 0 mm 3 mps 748 mmHg 44%
    01:00 +28°C° 0 mm 4 mps 748 mmHg 47%
    02:00 +28°C° 0 mm 4 mps 748 mmHg 49%
    03:00 +28°C° 0 mm 4 mps 748 mmHg 51%
    04:00 +27°C° 0 mm 4 mps 748 mmHg 53%
    05:00 +27°C° 0 mm 4 mps 749 mmHg 55%
    06:00 +27°C° 0 mm 5 mps 749 mmHg 57%
    07:00 +27°C° 0 mm 5 mps 750 mmHg 60%
    08:00 +29°C° 0 mm 5 mps 750 mmHg 55%
    09:00 +32°C° 0 mm 5 mps 750 mmHg 50%
    10:00 +34°C° 0 mm 5 mps 750 mmHg 45%
    11:00 +35°C° 0 mm 5 mps 749 mmHg 41%
    12:00 +36°C° 0 mm 4 mps 748 mmHg 37%
    13:00 +38°C° 0 mm 4 mps 747 mmHg 34%
    14:00 +37°C° 0 mm 4 mps 747 mmHg 33%
    15:00 +37°C° 0 mm 4 mps 746 mmHg 33%
    16:00 +37°C° 0 mm 4 mps 745 mmHg 33%
    17:00 +35°C° 0 mm 3 mps 746 mmHg 36%
    18:00 +34°C° 0 mm 3 mps 746 mmHg 39%
    19:00 +31°C° 0 mm 2 mps 747 mmHg 43%
    20:00 +30°C° 0 mm 2 mps 747 mmHg 44%
    21:00 +30°C° 0 mm 2 mps 748 mmHg 45%
    22:00 +29°C° 0 mm 2 mps 748 mmHg 46%
    23:00 +29°C° 0 mm 3 mps 748 mmHg 48%

    23 February, Friday

    Time Temperature Precipitation Wind Pressure Humidity
    00:00 +28°C° 0 mm 3 mps 747 mmHg 49%
    01:00 +28°C° 0 mm 3 mps 747 mmHg 51%
    02:00 +28°C° 0 mm 3 mps 747 mmHg 52%
    03:00 +27°C° 0 mm 4 mps 747 mmHg 54%
    04:00 +27°C° 0 mm 4 mps 747 mmHg 55%
    05:00 +27°C° 0 mm 4 mps 748 mmHg 57%
    06:00 +27°C° 0 mm 4 mps 748 mmHg 60%
    07:00 +27°C° 0 mm 5 mps 749 mmHg 62%
    08:00 +29°C° 0 mm 4 mps 749 mmHg 55%
    09:00 +32°C° 0 mm 4 mps 749 mmHg 49%
    10:00 +34°C° 0 mm 4 mps 749 mmHg 43%
    11:00 +36°C° 0 mm 4 mps 748 mmHg 39%
    12:00 +37°C° 0 mm 4 mps 747 mmHg 35%
    13:00 +39°C° 0 mm 3 mps 747 mmHg 30%
    14:00 +38°C° 0 mm 3 mps 746 mmHg 30%
    15:00 +38°C° 0 mm 3 mps 745 mmHg 30%
    16:00 +38°C° 0 mm 3 mps 745 mmHg 29%
    17:00 +36°C° 0 mm 3 mps 745 mmHg 33%
    18:00 +34°C° 0 mm 2 mps 745 mmHg 37%
    19:00 +31°C° 0 mm 2 mps 746 mmHg 41%
    20:00 +31°C° 0 mm 2 mps 746 mmHg 41%
    21:00 +30°C° 0 mm 3 mps 747 mmHg 42%
    22:00 +30°C° 0 mm 3 mps 747 mmHg 42%
    23:00 +30°C° 0 mm 3 mps 747 mmHg 43%

    24 February, Saturday

    Time Temperature Precipitation Wind Pressure Humidity
    00:00 +29°C° 0 mm 3 mps 747 mmHg 44%
    01:00 +29°C° 0 mm 3 mps 746 mmHg 46%
    02:00 +29°C° 0 mm 3 mps 746 mmHg 47%
    03:00 +28°C° 0 mm 4 mps 746 mmHg 48%
    04:00 +28°C° 0 mm 4 mps 746 mmHg 49%
    05:00 +28°C° 0 mm 4 mps 747 mmHg 52%
    06:00 +28°C° 0 mm 4 mps 748 mmHg 55%
    07:00 +28°C° 0 mm 4 mps 748 mmHg 59%
    08:00 +30°C° 0 mm 4 mps 748 mmHg 53%
    09:00 +33°C° 0 mm 4 mps 748 mmHg 48%
    10:00 +35°C° 0 mm 4 mps 749 mmHg 42%
    11:00 +36°C° 0 mm 3 mps 748 mmHg 39%
    12:00 +38°C° 0 mm 3 mps 747 mmHg 35%
    13:00 +39°C° 0 mm 2 mps 746 mmHg 32%
    14:00 +39°C° 0 mm 2 mps 746 mmHg 32%
    15:00 +38°C° 0 mm 2 mps 745 mmHg 32%
    16:00 +38°C° 0 mm 2 mps 744 mmHg 32%
    17:00 +36°C° 0 mm 2 mps 745 mmHg 35%
    18:00 +35°C° 0 mm 2 mps 745 mmHg 38%
    19:00 +32°C° 0 mm 2 mps 746 mmHg 42%
    20:00 +31°C° 0 mm 2 mps 746 mmHg 43%
    21:00 +31°C° 0 mm 2 mps 747 mmHg 44%
    22:00 +30°C° 0 mm 2 mps 747 mmHg 45%
    23:00 +30°C° 0 mm 2 mps 747 mmHg 46%
    Show more